SCP
0 0 0 0 0 0 0 0 0 0 0 0 0 0 0 0 0 0 0 0 0 0 0 0 -0 -0 0 0 -0 -0 -0 -0 -0 -0 -0 -0 -0 -0 -0 -0 -0 -0 -0 -0 -0 -0 -0 -0 -0
0 0 0 0 0 0 0 0 0 0 0 0 0 0 0 0 0 0 0 0 0 0 0 0 -0 0 0 -0 0 -0 -0 -0 -0 -0 -0 -0 -0 -0 -0 -0 -0 -0 -0 -0 -0 -0 -0 -0 -0
-0 0 0 0 0 0 0 0 0 0 0 0 0 0 0 0 0 0 0 0 0 0 0 0 -0 -0 -0 -0 -0 -0 -0 -0 -0 -0 -0 -0 -0 -0 -0 -0 -0 -0 -0 -0 -0 -0 -0 -0 -0
0 0 0 0 0 0 0 0 0 0 0 0 0 0 0 0 0 0 0 0 0 0 0 0 -0 -0 -0 -0 -0 -0 -0 -0 -0 -0 -0 -0 -0 -0 -0 -0 -0 -0 -0 -0 -0 -0 -0 -0 -0
0 0 0 0 0 0 0 0 0 0 0 0 0 0 0 0 0 0 0 0 0 0 0 0 0 -0 0 -0 -0 0 -0 -0 -0 -0 -0 -0 -0 -0 -0 -0 -0 -0 -0 -0 -0 -0 -0 -0 -0
0 -0 0 0 0 0 0 0 0 0 0 0 0 0 0 0 0 0 0 0 0 0 0 0 0 0 0 0 -0 -0 -0 -0 -0 -0 -0 -0 -0 -0 -0 -0 -0 -0 -0 -0 -0 -0 -0 -0 -0
0 -0 0 0 0 0 0 0 0 0 0 0 0 0 0 0 0 0 0 0 0 0 0 0 0 0 0 0 0 0 -0 -0 -0 -0 -0 -0 -0 -0 -0 -0 -0 -0 -0 -0 -0 -0 -0 -0 -0
0 -0 0 0 -0 0 0 0 0 0 0 0 0 0 0 0 0 0 0 0 0 0 0 0 0 0 0 0 0 0 0 0 0 0 0 0 0 0 0 0 0 0 0 0 0 0 0 0 0
0 0 0 0 0 0 -0 0 0 0 0 0 0 0 0 0 0 0 0 0 0 0 0 0 0 0 0 0 0 0 0 0 0 0 0 0 0 0 0 0 0 0 0 0 0 0 0 0 0
0 0 -0 0 -0 0 0 0 0 0 0 0 0 0 0 0 0 0 0 0 0 0 0 0 0 0 0 0 0 0 0 0 0 0 0 0 0 0 0 0 0 0 0 0 0 0 0 0 0
0 0 0 0 0 -0 -0 -0 -0 -0 -0 -0 0 0 0 0 0 0 0 0 0 0 0 0 0 0 0 0 0 0 0 0 0 0 0 0 0 0 0 0 0 0 0 0 0 0 0 0 0
0 0 0 0 0 0 0 0 0 0 0 0 0 0 0 0 0 0 0 0 0 0 0 0 0 0 0 0 0 0 0 0 0 0 0 0 0 0 0 0 0 0 0 0 0 0 0 0 0
0 0 0 0 0 0 0 0 0 0 -0 0 0 0 0 0 0 0 0 0 0 0 0 0 0 0 0 0 0 0 0 0 0 0 0 0 0 0 0 0 0 0 0 0 0 0 0 0 0
0 0 0 0 0 0 0 0 0 0 -0 0 0 0 0 0 0 0 -0 0 0 0 0 0 0 0 0 0 0 0 0 0 0 0 0 0 0 0 0 0 0 0 0 0 0 0 0 0 0
0 0 0 0 0 0 0 0 0 0 0 0 -0 -0 0 -0 0 0 0 0 -0 0 0 0 0 0 0 0 0 0 0 0 0 0 0 0 0 0 0 0 0 0 0 0 0 0 0 0 0
0 0 0 0 0 0 0 0 0 0 0 0 0 -0 0 0 -0 0 0 0 0 -0 -0 0 0 0 0 0 0 0 0 0 0 0 0 0 0 0 0 0 0 0 0 0 0 0 0 0 0
0 0 0 0 0 0 0 0 0 0 0 0 -0 -0 -0 0 -0 -0 -0 -0 -0 -0 -0 0 0 0 0 0 0 0 0 0 0 0 0 0 0 0 0 0 0 0 0 0 0 0 0 0 0
0 0 0 0 0 0 0 0 0 0 0 0 -0 -0 -0 -0 -0 -0 0 0 0 0 0 0 0 0 0 0 0 0 0 0 0 0 0 0 0 0 0 0 0 0 0 0 0 0 0 0 0
0 0 0 0 0 0 0 0 0 0 0 0 0 0 0 -0 -0 -0 -0 0 0 0 0 0 0 0 0 0 0 0 0 0 0 0 0 0 0 0 0 0 0 0 0 0 0 0 0 0 0
0 0 0 0 0 0 0 0 0 0 0 0 0 0 0 0 0 -0 -0 -0 -0 -0 0 0 0 0 0 0 0 0 0 0 0 0 0 0 0 0 0 0 0 0 0 0 0 0 0 0 0
0 0 0 0 0 0 0 0 0 0 0 0 0 0 -0 -0 -0 -0 -0 -0 -0 -0 -0 -0 -0 0 0 0 0 0 0 0 0 0 0 0 0 0 0 0 0 0 0 0 0 0 0 0 0
0 0 0 0 0 0 0 0 0 0 0 0 0 0 0 0 0 -0 -0 -0 -0 -0 -0 -0 -0 -0 0 0 0 0 0 0 0 0 0 0 0 0 0 0 0 0 0 0 0 0 0 0 0
0 0 0 0 0 0 0 0 0 0 0 0 0 0 0 0 0 0 0 -0 -0 -0 0 0 0 0 0 0 0 0 0 0 0 0 0 0 0 0 0 0 0 0 0 0 0 0 0 0 0
0 0 0 0 0 0 0 0 0 0 0 0 0 0 0 0 0 0 0 0 0 0 0 0 0 0 0 0 0 0 0 0 0 0 0 0 0 0 0 0 0 0 0 0 0 0 0 0 0
0 0 0 0 0 0 0 0 0 0 0 0 0 0 0 0 0 0 0 0 0 0 0 0 0 0 0 0 0 0 0 0 0 0 0 0 0 0 0 0 0 0 0 0 0 0 0 0 0
0 0 0 0 0 0 0 0 0 0 0 0 0 0 0 0 0 0 0 0 0 0 0 0 0 0 0 0 0 0 0 0 0 0 0 0 0 0 0 0 0 0 0 0 0 0 0 0 0
0 0 0 0 0 0 0 0 0 0 0 0 0 0 0 0 0 0 0 0 0 0 0 0 0 0 0 0 0 0 0 0 0 0 0 0 0 0 0 0 0 0 0 0 0 0 0 0 0
0 0 0 0 0 0 0 0 0 0 0 0 0 -0 -0 0 0 0 0 0 0 0 0 0 0 0 0 0 0 0 0 0 0 0 0 0 0 0 0 0 0 0 0 0 0 0 0 0 0
0 0 0 0 0 0 0 0 0 0 0 -0 -0 -0 0 0 0 0 0 0 0 0 0 0 0 0 0 0 0 0 0 0 0 0 0 0 0 0 0 0 0 0 0 0 0 0 0 0 0
0 0 0 0 0 0 0 0 0 -0 0 0 0 0 0 0 -0 -0 0 0 0 0 0 0 0 0 0 0 0 0 0 0 0 0 0 0 0 0 0 0 0 0 0 0 0 0 0 0 0
Wind_Speed_500mb
25 3 13 10 4 9 20 3 18 21 11 20 24 17 15 14 13 5 9 10 17 30 41 27 19 18 26 20 12 15 16 23 23 23 22 20 22 18 20 19 24 23 18 12 20 24 19 19 22
16 5 10 10 9 15 12 26 25 23 19 10 12 13 17 10 12 6 16 8 19 35 51 36 38 29 24 18 20 21 25 26 23 20 20 17 16 14 12 12 12 11 7 15 21 21 24 24 22
11 7 16 6 7 18 8 22 20 16 24 21 6 17 9 8 3 7 10 6 16 31 49 61 64 53 33 29 29 26 26 23 20 16 16 14 11 8 4 4 3 7 11 18 20 21 22 22 22
10 9 17 9 11 9 13 12 17 8 13 23 12 12 8 4 5 11 6 12 12 29 45 62 67 60 43 36 31 20 16 20 21 17 14 10 6 5 6 7 9 9 12 13 15 17 20 20 20
11 11 8 10 8 5 7 14 13 14 4 16 21 4 7 10 9 9 8 13 15 23 38 50 63 61 52 36 24 18 13 11 13 7 6 7 9 9 9 8 7 7 10 12 13 15 15 15 13
13 8 4 9 7 2 3 8 9 5 4 9 7 5 3 7 10 7 8 10 13 15 22 29 41 49 44 38 27 20 14 8 4 8 7 6 5 5 5 5 4 7 8 9 9 10 10 9 7
17 6 8 18 4 2 4 12 9 7 2 6 3 5 7 3 8 11 8 7 7 15 16 19 24 29 33 27 25 17 9 7 6 5 4 3 2 5 7 7 7 7 7 8 7 5 3 6 6
16 6 8 7 8 4 3 1 3 3 2 4 7 3 5 6 8 13 7 12 7 11 17 19 15 16 16 19 16 13 11 12 12 8 5 4 4 7 5 5 6 5 5 5 6 5 5 6 5
16 8 8 8 4 5 2 4 6 5 4 5 6 12 11 10 13 13 8 15 10 10 13 14 18 16 18 20 18 16 13 12 12 10 8 6 1 1 2 1 3 4 6 5 6 5 7 9 9
27 10 10 12 7 5 4 3 3 2 6 7 12 14 13 15 13 16 14 20 12 10 16 15 19 22 21 22 18 19 18 18 15 18 16 10 5 2 0 2 3 3 3 2 1 2 4 7 13
18 9 4 6 2 5 7 6 5 5 10 21 16 20 16 18 19 15 18 23 20 12 18 17 16 19 22 23 24 22 20 24 21 21 20 13 9 5 6 3 2 2 1 0 2 4 5 8 11
15 22 14 7 8 10 8 8 9 17 9 12 18 18 21 21 21 17 18 20 20 20 18 21 17 21 21 21 22 21 25 22 21 19 17 12 10 9 7 5 4 4 5 6 8 8 9 11 13
18 13 12 7 5 4 4 14 13 25 25 19 20 20 21 22 22 23 20 22 22 23 23 22 21 20 20 20 21 24 19 19 18 18 11 13 11 8 6 6 6 7 10 11 11 10 10 9 11
22 29 18 9 4 4 8 8 11 7 17 18 19 24 26 24 25 28 28 23 22 21 25 24 23 22 23 22 19 18 18 18 16 14 14 11 9 9 9 9 9 9 10 12 12 11 11 12 11
26 11 14 16 9 5 5 9 14 15 17 17 22 24 27 32 35 34 30 27 22 26 25 24 26 25 23 22 21 20 21 20 18 15 12 13 11 13 14 14 15 13 13 12 12 12 12 12 13
10 9 7 7 13 13 6 12 10 15 20 22 25 27 28 31 35 35 33 32 32 33 32 32 32 30 28 27 26 24 22 22 20 18 16 14 13 14 16 15 15 15 15 15 13 13 12 12 13
5 9 10 10 7 5 7 10 16 25 25 24 27 29 31 31 36 39 43 42 42 42 42 42 41 39 36 34 31 30 29 28 27 27 26 27 27 26 22 20 19 20 18 17 17 15 15 15 14
11 11 12 14 5 5 15 29 26 37 34 34 29 29 32 35 41 39 45 46 45 43 45 45 42 41 40 41 40 39 37 37 37 34 33 31 28 22 19 19 18 19 18 17 15 14 12 12 13
14 11 15 8 7 15 12 18 17 36 39 36 38 34 35 36 32 39 42 45 46 47 45 43 44 44 46 47 47 46 44 42 39 36 34 30 27 27 27 26 25 21 18 16 15 14 12 11 14
13 17 12 9 4 11 15 32 25 22 33 46 41 40 39 36 35 39 41 42 48 49 49 50 51 52 52 52 48 45 42 42 39 39 40 38 33 30 30 26 23 22 21 21 20 17 16 13 12
6 7 9 10 21 2 18 8 3 4 21 39 44 44 42 43 42 42 45 46 47 53 54 54 54 55 54 51 50 49 49 51 51 52 48 42 39 38 32 30 30 28 26 24 21 20 18 17 13
8 9 16 16 16 6 13 8 6 6 15 18 41 52 56 52 52 53 55 54 54 51 50 54 56 57 55 54 56 59 62 60 58 53 50 48 47 43 40 39 36 33 30 27 24 21 19 18 17
7 10 8 8 11 5 12 5 12 5 11 22 40 57 60 60 62 63 63 62 57 54 55 56 58 62 64 66 67 68 68 65 58 56 57 57 55 53 50 48 44 41 36 32 28 26 23 22 21
19 13 12 5 2 6 6 7 12 6 8 4 16 62 64 64 64 64 64 64 63 63 63 64 66 69 70 74 74 77 78 72 66 62 66 66 65 62 60 57 52 47 43 40 34 32 31 28 25
7 9 7 10 8 7 9 5 20 14 15 12 10 19 50 55 62 67 67 69 70 71 75 75 78 82 82 85 88 89 87 83 80 76 78 76 73 73 70 64 61 56 51 46 43 40 36 32 31
6 4 6 8 6 9 4 10 11 3 12 7 10 11 13 44 52 63 68 72 75 75 76 81 88 91 92 93 97 96 95 93 91 88 90 89 83 78 73 69 66 62 57 53 49 47 43 41 37
3 2 1 4 3 5 8 13 24 5 6 14 10 13 24 29 46 53 62 66 69 76 83 84 86 92 97 100 101 103 102 101 102 99 95 97 92 85 81 76 73 69 66 62 58 56 51 45 42
2 2 1 4 7 9 8 6 12 11 16 19 22 23 24 25 29 42 52 60 58 65 75 82 92 98 100 103 107 110 109 108 107 106 106 106 103 94 90 86 82 76 73 70 66 62 56 52 50
2 3 2 2 5 7 6 10 11 7 5 13 24 29 30 29 31 41 45 52 51 57 67 77 85 92 103 111 114 115 116 115 114 116 116 116 111 105 98 96 89 85 81 78 73 68 62 59 55
6 4 11 7 11 6 5 13 30 16 11 13 29 65 75 76 56 51 57 55 57 57 64 73 80 88 92 100 110 117 117 117 120 124 124 121 120 114 110 105 101 95 89 83 79 75 71 67 62
Wind_Direction_500mb
296 248 284 241 247 233 239 202 77 29 68 20 33 49 88 53 31 115 163 104 85 84 84 130 137 125 124 126 125 120 119 107 106 106 107 104 103 107 99 98 79 62 58 33 45 60 66 65 65
305 227 251 247 222 229 195 24 54 37 16 342 26 352 45 68 58 125 129 75 100 93 89 114 97 126 135 135 135 140 131 121 122 123 115 138 135 139 143 134 110 90 27 24 44 67 53 62 69
323 293 254 234 222 239 81 32 41 47 25 26 55 56 37 33 343 123 114 104 109 103 101 111 98 79 129 130 140 153 157 145 134 153 162 156 140 157 177 164 18 355 12 42 51 54 59 62 72
282 215 258 228 25 38 62 44 355 34 32 36 5 58 48 24 223 140 133 135 119 118 118 120 118 104 127 136 146 153 176 176 192 197 162 164 155 81 64 67 66 46 37 42 47 52 61 67 74
249 266 217 90 68 33 352 11 10 57 47 7 15 78 83 296 268 163 160 151 148 138 135 130 136 138 140 170 175 177 195 220 186 152 124 108 100 90 85 79 64 44 37 40 38 44 60 71 78
37 46 245 107 90 158 142 336 320 94 90 27 64 317 183 274 265 212 175 156 157 163 149 142 142 149 160 167 185 186 213 246 140 113 103 86 72 53 31 40 36 24 20 20 27 44 56 72 87
124 52 64 96 90 326 8 333 24 338 301 75 89 288 274 263 261 253 172 149 161 182 169 162 161 164 172 170 197 203 199 211 178 149 144 118 356 340 339 339 352 2 2 2 2 18 68 102 114
7 74 87 44 163 231 350 335 246 37 355 145 168 213 280 274 224 252 201 200 166 179 192 185 168 181 166 179 208 203 201 230 214 209 233 253 336 335 349 3 355 11 12 15 27 47 98 133 165
352 90 61 36 43 104 260 290 359 338 301 262 215 219 231 224 215 203 228 237 165 183 195 200 200 199 203 205 233 232 223 219 236 240 256 283 326 348 21 352 30 43 44 59 70 90 114 132 153
21 65 31 346 352 126 189 233 239 305 300 270 241 248 232 196 213 183 200 238 219 197 195 194 204 213 225 222 227 226 219 217 230 245 243 244 239 215 280 113 111 81 54 354 87 158 189 169 159
25 63 183 354 354 140 188 244 240 208 239 232 212 218 226 207 201 202 187 210 234 219 215 197 201 204 218 220 228 228 226 225 206 219 232 223 203 195 210 183 131 89 89 148 139 164 173 169 164
79 37 19 341 2 331 342 293 275 220 250 261 233 231 229 218 207 209 211 192 204 218 215 207 194 200 194 202 205 207 216 216 203 201 207 177 183 206 204 177 155 136 140 139 138 142 144 147 149
103 146 98 86 29 358 306 287 255 250 244 232 220 218 225 226 224 221 225 212 194 200 212 204 195 189 196 185 188 198 193 203 201 198 193 200 183 201 194 186 174 166 154 154 150 149 146 150 157
142 139 155 179 176 265 294 287 336 300 218 223 226 223 218 221 227 228 224 220 212 200 202 202 192 194 188 189 185 175 178 179 185 181 179 190 192 195 200 203 202 186 170 154 151 153 155 157 155
161 126 171 181 173 209 245 237 234 263 222 233 239 239 237 224 220 218 218 216 222 219 205 198 196 185 187 178 176 179 174 174 178 174 188 182 193 203 206 200 193 188 172 163 157 155 163 165 163
259 217 136 149 176 129 110 289 165 193 194 233 249 247 248 241 235 225 224 219 210 217 224 217 211 204 198 199 195 190 203 197 197 199 193 192 201 208 210 205 194 184 174 164 165 165 169 175 172
332 351 359 142 155 163 169 277 146 183 196 242 252 245 244 246 240 230 227 221 218 216 216 211 205 203 192 200 195 195 199 200 202 203 208 205 209 208 203 195 190 180 175 171 165 171 175 176 187
334 342 331 349 95 275 266 257 262 186 203 223 242 243 245 245 250 244 233 225 222 217 210 206 203 200 197 197 195 196 206 220 224 217 213 212 208 202 199 196 193 184 177 170 164 161 164 175 177
279 274 296 4 93 320 272 266 262 192 201 223 230 233 235 243 254 258 247 235 228 222 217 214 209 205 204 206 211 217 222 217 211 209 210 208 210 209 205 199 194 188 187 182 176 171 157 167 187
292 316 11 294 96 307 300 293 265 221 205 211 225 231 231 231 226 233 243 242 236 233 228 225 221 220 219 219 220 222 217 214 216 222 224 219 214 212 211 205 200 199 194 192 190 187 173 161 185
59 14 1 301 309 305 302 273 278 235 195 213 227 230 229 227 226 226 235 241 243 240 237 235 234 233 230 227 222 219 221 226 229 225 221 220 219 218 216 213 212 209 206 202 201 200 201 188 174
319 22 323 325 355 335 8 282 296 174 229 205 222 226 228 228 226 223 226 238 244 245 241 241 241 241 241 233 228 231 233 234 232 230 227 225 224 223 221 220 220 219 216 212 210 210 209 211 202
287 344 298 299 322 53 342 54 259 104 239 233 224 227 229 226 225 226 231 235 237 241 241 240 237 237 236 237 238 240 241 240 240 239 234 231 228 226 226 227 225 225 223 223 220 220 218 221 225
298 292 202 229 228 6 234 93 287 208 206 167 208 224 226 225 227 231 236 237 239 241 239 237 238 238 237 237 236 237 242 243 241 240 240 235 232 231 230 230 229 229 229 228 229 228 229 230 233
276 314 335 350 5 228 97 338 248 281 276 226 242 237 225 226 228 230 231 235 239 240 241 240 240 241 240 240 241 242 242 242 241 241 243 243 238 234 233 233 233 233 234 233 232 233 236 239 243
355 24 131 291 308 291 4 245 258 288 305 261 299 246 252 230 231 234 235 238 240 244 243 246 247 246 244 244 245 245 245 244 243 241 242 247 246 245 243 240 239 239 238 238 237 239 240 241 243
349 354 326 103 114 62 248 284 305 358 33 359 254 277 266 255 240 239 245 246 246 248 250 249 249 252 251 250 249 247 247 246 246 244 242 245 247 247 247 244 243 241 239 239 241 241 244 246 250
312 329 56 345 325 287 259 278 236 340 5 357 356 332 303 286 272 256 258 257 259 261 260 258 256 258 257 254 252 250 250 250 248 246 246 245 248 245 246 245 245 243 242 241 241 244 245 246 250
79 197 355 5 172 224 320 263 221 9 348 313 318 336 334 336 322 309 287 268 270 275 272 268 262 263 261 259 254 251 252 251 250 249 249 248 247 247 244 246 244 243 242 240 241 244 246 248 250
82 120 166 140 274 248 197 261 284 283 316 296 324 322 318 316 313 309 294 278 284 282 280 275 277 272 273 269 263 258 256 254 253 252 253 251 249 247 247 244 244 244 243 242 241 244 245 246 248
Wind_Speed_850mb
25 3 13 10 4 9 20 3 18 21 11 20 24 17 15 14 13 5 9 10 17 30 41 27 19 18 26 20 12 15 16 23 23 23 22 20 22 18 20 19 24 23 18 12 20 24 19 19 22
16 5 10 10 9 15 12 26 25 23 19 10 12 13 17 10 12 6 16 8 19 35 51 36 38 29 24 18 20 21 25 26 23 20 20 17 16 14 12 12 12 11 7 15 21 21 24 24 22
11 7 16 6 7 18 8 22 20 16 24 21 6 17 9 8 3 7 10 6 16 31 49 61 64 53 33 29 29 26 26 23 20 16 16 14 11 8 4 4 3 7 11 18 20 21 22 22 22
10 9 17 9 11 9 13 12 17 8 13 23 12 12 8 4 5 11 6 12 12 29 45 62 67 60 43 36 31 20 16 20 21 17 14 10 6 5 6 7 9 9 12 13 15 17 20 20 20
11 11 8 10 8 5 7 14 13 14 4 16 21 4 7 10 9 9 8 13 15 23 38 50 63 61 52 36 24 18 13 11 13 7 6 7 9 9 9 8 7 7 10 12 13 15 15 15 13
13 8 4 9 7 2 3 8 9 5 4 9 7 5 3 7 10 7 8 10 13 15 22 29 41 49 44 38 27 20 14 8 4 8 7 6 5 5 5 5 4 7 8 9 9 10 10 9 7
17 6 8 18 4 2 4 12 9 7 2 6 3 5 7 3 8 11 8 7 7 15 16 19 24 29 33 27 25 17 9 7 6 5 4 3 2 5 7 7 7 7 7 8 7 5 3 6 6
16 6 8 7 8 4 3 1 3 3 2 4 7 3 5 6 8 13 7 12 7 11 17 19 15 16 16 19 16 13 11 12 12 8 5 4 4 7 5 5 6 5 5 5 6 5 5 6 5
16 8 8 8 4 5 2 4 6 5 4 5 6 12 11 10 13 13 8 15 10 10 13 14 18 16 18 20 18 16 13 12 12 10 8 6 1 1 2 1 3 4 6 5 6 5 7 9 9
27 10 10 12 7 5 4 3 3 2 6 7 12 14 13 15 13 16 14 20 12 10 16 15 19 22 21 22 18 19 18 18 15 18 16 10 5 2 0 2 3 3 3 2 1 2 4 7 13
18 9 4 6 2 5 7 6 5 5 10 21 16 20 16 18 19 15 18 23 20 12 18 17 16 19 22 23 24 22 20 24 21 21 20 13 9 5 6 3 2 2 1 0 2 4 5 8 11
15 22 14 7 8 10 8 8 9 17 9 12 18 18 21 21 21 17 18 20 20 20 18 21 17 21 21 21 22 21 25 22 21 19 17 12 10 9 7 5 4 4 5 6 8 8 9 11 13
18 13 12 7 5 4 4 14 13 25 25 19 20 20 21 22 22 23 20 22 22 23 23 22 21 20 20 20 21 24 19 19 18 18 11 13 11 8 6 6 6 7 10 11 11 10 10 9 11
22 29 18 9 4 4 8 8 11 7 17 18 19 24 26 24 25 28 28 23 22 21 25 24 23 22 23 22 19 18 18 18 16 14 14 11 9 9 9 9 9 9 10 12 12 11 11 12 11
26 11 14 16 9 5 5 9 14 15 17 17 22 24 27 32 35 34 30 27 22 26 25 24 26 25 23 22 21 20 21 20 18 15 12 13 11 13 14 14 15 13 13 12 12 12 12 12 13
10 9 7 7 13 13 6 12 10 15 20 22 25 27 28 31 35 35 33 32 32 33 32 32 32 30 28 27 26 24 22 22 20 18 16 14 13 14 16 15 15 15 15 15 13 13 12 12 13
5 9 10 10 7 5 7 10 16 25 25 24 27 29 31 31 36 39 43 42 42 42 42 42 41 39 36 34 31 30 29 28 27 27 26 27 27 26 22 20 19 20 18 17 17 15 15 15 14
11 11 12 14 5 5 15 29 26 37 34 34 29 29 32 35 41 39 45 46 45 43 45 45 42 41 40 41 40 39 37 37 37 34 33 31 28 22 19 19 18 19 18 17 15 14 12 12 13
14 11 15 8 7 15 12 18 17 36 39 36 38 34 35 36 32 39 42 45 46 47 45 43 44 44 46 47 47 46 44 42 39 36 34 30 27 27 27 26 25 21 18 16 15 14 12 11 14
13 17 12 9 4 11 15 32 25 22 33 46 41 40 39 36 35 39 41 42 48 49 49 50 51 52 52 52 48 45 42 42 39 39 40 38 33 30 30 26 23 22 21 21 20 17 16 13 12
6 7 9 10 21 2 18 8 3 4 21 39 44 44 42 43 42 42 45 46 47 53 54 54 54 55 54 51 50 49 49 51 51 52 48 42 39 38 32 30 30 28 26 24 21 20 18 17 13
8 9 16 16 16 6 13 8 6 6 15 18 41 52 56 52 52 53 55 54 54 51 50 54 56 57 55 54 56 59 62 60 58 53 50 48 47 43 40 39 36 33 30 27 24 21 19 18 17
7 10 8 8 11 5 12 5 12 5 11 22 40 57 60 60 62 63 63 62 57 54 55 56 58 62 64 66 67 68 68 65 58 56 57 57 55 53 50 48 44 41 36 32 28 26 23 22 21
19 13 12 5 2 6 6 7 12 6 8 4 16 62 64 64 64 64 64 64 63 63 63 64 66 69 70 74 74 77 78 72 66 62 66 66 65 62 60 57 52 47 43 40 34 32 31 28 25
7 9 7 10 8 7 9 5 20 14 15 12 10 19 50 55 62 67 67 69 70 71 75 75 78 82 82 85 88 89 87 83 80 76 78 76 73 73 70 64 61 56 51 46 43 40 36 32 31
6 4 6 8 6 9 4 10 11 3 12 7 10 11 13 44 52 63 68 72 75 75 76 81 88 91 92 93 97 96 95 93 91 88 90 89 83 78 73 69 66 62 57 53 49 47 43 41 37
3 2 1 4 3 5 8 13 24 5 6 14 10 13 24 29 46 53 62 66 69 76 83 84 86 92 97 100 101 103 102 101 102 99 95 97 92 85 81 76 73 69 66 62 58 56 51 45 42
2 2 1 4 7 9 8 6 12 11 16 19 22 23 24 25 29 42 52 60 58 65 75 82 92 98 100 103 107 110 109 108 107 106 106 106 103 94 90 86 82 76 73 70 66 62 56 52 50
2 3 2 2 5 7 6 10 11 7 5 13 24 29 30 29 31 41 45 52 51 57 67 77 85 92 103 111 114 115 116 115 114 116 116 116 111 105 98 96 89 85 81 78 73 68 62 59 55
6 4 11 7 11 6 5 13 30 16 11 13 29 65 75 76 56 51 57 55 57 57 64 73 80 88 92 100 110 117 117 117 120 124 124 121 120 114 110 105 101 95 89 83 79 75 71 67 62
Wind_Direction_850mb
296 248 284 241 247 233 239 202 77 29 68 20 33 49 88 53 31 115 163 104 85 84 84 130 137 125 124 126 125 120 119 107 106 106 107 104 103 107 99 98 79 62 58 33 45 60 66 65 65
305 227 251 247 222 229 195 24 54 37 16 342 26 352 45 68 58 125 129 75 100 93 89 114 97 126 135 135 135 140 131 121 122 123 115 138 135 139 143 134 110 90 27 24 44 67 53 62 69
323 293 254 234 222 239 81 32 41 47 25 26 55 56 37 33 343 123 114 104 109 103 101 111 98 79 129 130 140 153 157 145 134 153 162 156 140 157 177 164 18 355 12 42 51 54 59 62 72
282 215 258 228 25 38 62 44 355 34 32 36 5 58 48 24 223 140 133 135 119 118 118 120 118 104 127 136 146 153 176 176 192 197 162 164 155 81 64 67 66 46 37 42 47 52 61 67 74
249 266 217 90 68 33 352 11 10 57 47 7 15 78 83 296 268 163 160 151 148 138 135 130 136 138 140 170 175 177 195 220 186 152 124 108 100 90 85 79 64 44 37 40 38 44 60 71 78
37 46 245 107 90 158 142 336 320 94 90 27 64 317 183 274 265 212 175 156 157 163 149 142 142 149 160 167 185 186 213 246 140 113 103 86 72 53 31 40 36 24 20 20 27 44 56 72 87
124 52 64 96 90 326 8 333 24 338 301 75 89 288 274 263 261 253 172 149 161 182 169 162 161 164 172 170 197 203 199 211 178 149 144 118 356 340 339 339 352 2 2 2 2 18 68 102 114
7 74 87 44 163 231 350 335 246 37 355 145 168 213 280 274 224 252 201 200 166 179 192 185 168 181 166 179 208 203 201 230 214 209 233 253 336 335 349 3 355 11 12 15 27 47 98 133 165
352 90 61 36 43 104 260 290 359 338 301 262 215 219 231 224 215 203 228 237 165 183 195 200 200 199 203 205 233 232 223 219 236 240 256 283 326 348 21 352 30 43 44 59 70 90 114 132 153
21 65 31 346 352 126 189 233 239 305 300 270 241 248 232 196 213 183 200 238 219 197 195 194 204 213 225 222 227 226 219 217 230 245 243 244 239 215 280 113 111 81 54 354 87 158 189 169 159
25 63 183 354 354 140 188 244 240 208 239 232 212 218 226 207 201 202 187 210 234 219 215 197 201 204 218 220 228 228 226 225 206 219 232 223 203 195 210 183 131 89 89 148 139 164 173 169 164
79 37 19 341 2 331 342 293 275 220 250 261 233 231 229 218 207 209 211 192 204 218 215 207 194 200 194 202 205 207 216 216 203 201 207 177 183 206 204 177 155 136 140 139 138 142 144 147 149
103 146 98 86 29 358 306 287 255 250 244 232 220 218 225 226 224 221 225 212 194 200 212 204 195 189 196 185 188 198 193 203 201 198 193 200 183 201 194 186 174 166 154 154 150 149 146 150 157
142 139 155 179 176 265 294 287 336 300 218 223 226 223 218 221 227 228 224 220 212 200 202 202 192 194 188 189 185 175 178 179 185 181 179 190 192 195 200 203 202 186 170 154 151 153 155 157 155
161 126 171 181 173 209 245 237 234 263 222 233 239 239 237 224 220 218 218 216 222 219 205 198 196 185 187 178 176 179 174 174 178 174 188 182 193 203 206 200 193 188 172 163 157 155 163 165 163
259 217 136 149 176 129 110 289 165 193 194 233 249 247 248 241 235 225 224 219 210 217 224 217 211 204 198 199 195 190 203 197 197 199 193 192 201 208 210 205 194 184 174 164 165 165 169 175 172
332 351 359 142 155 163 169 277 146 183 196 242 252 245 244 246 240 230 227 221 218 216 216 211 205 203 192 200 195 195 199 200 202 203 208 205 209 208 203 195 190 180 175 171 165 171 175 176 187
334 342 331 349 95 275 266 257 262 186 203 223 242 243 245 245 250 244 233 225 222 217 210 206 203 200 197 197 195 196 206 220 224 217 213 212 208 202 199 196 193 184 177 170 164 161 164 175 177
279 274 296 4 93 320 272 266 262 192 201 223 230 233 235 243 254 258 247 235 228 222 217 214 209 205 204 206 211 217 222 217 211 209 210 208 210 209 205 199 194 188 187 182 176 171 157 167 187
292 316 11 294 96 307 300 293 265 221 205 211 225 231 231 231 226 233 243 242 236 233 228 225 221 220 219 219 220 222 217 214 216 222 224 219 214 212 211 205 200 199 194 192 190 187 173 161 185
59 14 1 301 309 305 302 273 278 235 195 213 227 230 229 227 226 226 235 241 243 240 237 235 234 233 230 227 222 219 221 226 229 225 221 220 219 218 216 213 212 209 206 202 201 200 201 188 174
319 22 323 325 355 335 8 282 296 174 229 205 222 226 228 228 226 223 226 238 244 245 241 241 241 241 241 233 228 231 233 234 232 230 227 225 224 223 221 220 220 219 216 212 210 210 209 211 202
287 344 298 299 322 53 342 54 259 104 239 233 224 227 229 226 225 226 231 235 237 241 241 240 237 237 236 237 238 240 241 240 240 239 234 231 228 226 226 227 225 225 223 223 220 220 218 221 225
298 292 202 229 228 6 234 93 287 208 206 167 208 224 226 225 227 231 236 237 239 241 239 237 238 238 237 237 236 237 242 243 241 240 240 235 232 231 230 230 229 229 229 228 229 228 229 230 233
276 314 335 350 5 228 97 338 248 281 276 226 242 237 225 226 228 230 231 235 239 240 241 240 240 241 240 240 241 242 242 242 241 241 243 243 238 234 233 233 233 233 234 233 232 233 236 239 243
355 24 131 291 308 291 4 245 258 288 305 261 299 246 252 230 231 234 235 238 240 244 243 246 247 246 244 244 245 245 245 244 243 241 242 247 246 245 243 240 239 239 238 238 237 239 240 241 243
349 354 326 103 114 62 248 284 305 358 33 359 254 277 266 255 240 239 245 246 246 248 250 249 249 252 251 250 249 247 247 246 246 244 242 245 247 247 247 244 243 241 239 239 241 241 244 246 250
312 329 56 345 325 287 259 278 236 340 5 357 356 332 303 286 272 256 258 257 259 261 260 258 256 258 257 254 252 250 250 250 248 246 246 245 248 245 246 245 245 243 242 241 241 244 245 246 250
79 197 355 5 172 224 320 263 221 9 348 313 318 336 334 336 322 309 287 268 270 275 272 268 262 263 261 259 254 251 252 251 250 249 249 248 247 247 244 246 244 243 242 240 241 244 246 248 250
82 120 166 140 274 248 197 261 284 283 316 296 324 322 318 316 313 309 294 278 284 282 280 275 277 272 273 269 263 258 256 254 253 252 253 251 249 247 247 244 244 244 243 242 241 244 245 246 248